QPF
0.00 0.00 0.00 0.00 0.00 0.00 0.00 0.00 0.00 0.00 0.00 0.00 0.00 0.01 0.01 0.01 0.01 0.01 0.00 0.00 0.00 0.00 0.00 0.01 0.01 0.01 0.02 0.01 0.01 0.01 0.02 0.01 0.01 0.01 0.01 0.01 0.01 0.02 0.02 0.02 0.01 0.01 0.00 0.00
0.00 0.00 0.00 0.00 0.00 0.00 0.00 0.00 0.00 0.00 0.00 0.00 0.00 0.00 0.01 0.01 0.01 0.01 0.01 0.01 0.00 0.00 0.00 0.01 0.01 0.01 0.02 0.02 0.02 0.01 0.01 0.02 0.01 0.02 0.02 0.02 0.02 0.02 0.03 0.02 0.01 0.01 0.00 0.00
0.00 0.00 0.00 0.00 0.00 0.00 0.00 0.00 0.00 0.00 0.00 0.00 0.00 0.00 0.01 0.01 0.01 0.01 0.01 0.00 0.00 0.00 0.00 0.01 0.01 0.01 0.01 0.01 0.01 0.01 0.01 0.01 0.02 0.03 0.03 0.03 0.03 0.03 0.03 0.03 0.02 0.01 0.01 0.01
0.01 0.01 0.01 0.00 0.00 0.00 0.00 0.00 0.00 0.00 0.00 0.00 0.00 0.00 0.00 0.00 0.01 0.01 0.00 0.00 0.00 0.00 0.00 0.01 0.01 0.01 0.01 0.01 0.01 0.01 0.01 0.01 0.02 0.02 0.03 0.03 0.03 0.03 0.03 0.03 0.03 0.02 0.01 0.01
0.03 0.02 0.01 0.00 0.00 0.00 0.01 0.00 0.00 0.00 0.00 0.00 0.00 0.00 0.00 0.01 0.01 0.00 0.00 0.00 0.00 0.00 0.01 0.01 0.01 0.01 0.01 0.01 0.01 0.01 0.01 0.01 0.02 0.02 0.02 0.03 0.02 0.03 0.02 0.03 0.03 0.02 0.02 0.01
0.04 0.03 0.01 0.00 0.00 0.00 0.00 0.01 0.01 0.00 0.00 0.00 0.00 0.01 0.01 0.01 0.00 0.00 0.00 0.00 0.00 0.00 0.00 0.01 0.01 0.01 0.01 0.01 0.01 0.02 0.02 0.02 0.02 0.02 0.02 0.02 0.02 0.02 0.02 0.02 0.02 0.02 0.02 0.02
0.04 0.02 0.01 0.00 0.01 0.01 0.01 0.02 0.01 0.01 0.01 0.01 0.01 0.01 0.01 0.00 0.00 0.00 0.00 0.00 0.00 0.00 0.01 0.01 0.01 0.01 0.01 0.01 0.01 0.02 0.02 0.02 0.02 0.02 0.02 0.02 0.02 0.02 0.02 0.01 0.01 0.01 0.01 0.01
0.03 0.03 0.01 0.00 0.00 0.01 0.02 0.01 0.01 0.00 0.00 0.01 0.01 0.01 0.01 0.01 0.00 0.00 0.00 0.00 0.00 0.01 0.01 0.01 0.01 0.01 0.01 0.01 0.01 0.01 0.02 0.02 0.02 0.02 0.01 0.01 0.01 0.01 0.01 0.01 0.01 0.01 0.01 0.01
0.02 0.02 0.01 0.01 0.01 0.01 0.01 0.00 0.00 0.00 0.00 0.00 0.00 0.00 0.00 0.00 0.00 0.00 0.00 0.00 0.00 0.01 0.00 0.00 0.01 0.01 0.01 0.01 0.01 0.01 0.01 0.02 0.02 0.02 0.01 0.01 0.01 0.01 0.01 0.01 0.01 0.01 0.02 0.02
0.02 0.02 0.01 0.01 0.01 0.00 0.00 0.00 0.00 0.00 0.00 0.00 0.00 0.00 0.00 0.00 0.00 0.00 0.00 0.00 0.01 0.01 0.00 0.00 0.01 0.01 0.01 0.01 0.01 0.01 0.01 0.01 0.01 0.01 0.01 0.01 0.01 0.01 0.01 0.02 0.02 0.02 0.02 0.02
0.02 0.02 0.01 0.01 0.00 0.00 0.00 0.00 0.00 0.00 0.00 0.00 0.00 0.00 0.00 0.00 0.00 0.00 0.00 0.00 0.00 0.00 0.00 0.00 0.00 0.00 0.00 0.00 0.01 0.01 0.01 0.01 0.01 0.01 0.01 0.01 0.01 0.02 0.02 0.02 0.03 0.04 0.03 0.02
0.01 0.01 0.01 0.01 0.00 0.00 0.00 0.00 0.00 0.00 0.00 0.00 0.00 0.00 0.00 0.01 0.00 0.00 0.00 0.00 0.00 0.00 0.00 0.00 0.00 0.00 0.00 0.00 0.01 0.01 0.01 0.01 0.01 0.01 0.01 0.01 0.01 0.01 0.01 0.01 0.02 0.02 0.02 0.03
0.01 0.01 0.01 0.01 0.00 0.00 0.00 0.00 0.00 0.00 0.00 0.00 0.00 0.00 0.00 0.01 0.00 0.00 0.00 0.00 0.00 0.00 0.00 0.00 0.00 0.00 0.00 0.00 0.00 0.01 0.01 0.01 0.01 0.01 0.01 0.01 0.01 0.01 0.01 0.01 0.01 0.01 0.01 0.02
0.01 0.01 0.01 0.00 0.01 0.01 0.00 0.00 0.00 0.00 0.00 0.00 0.00 0.00 0.00 0.00 0.00 0.00 0.00 0.00 0.00 0.00 0.00 0.00 0.00 0.00 0.00 0.00 0.00 0.00 0.00 0.00 0.00 0.01 0.01 0.01 0.01 0.01 0.01 0.01 0.01 0.01 0.01 0.01
0.01 0.00 0.00 0.01 0.01 0.01 0.01 0.00 0.00 0.00 0.00 0.00 0.00 0.00 0.00 0.01 0.01 0.00 0.00 0.00 0.00 0.00 0.00 0.00 0.00 0.00 0.00 0.00 0.00 0.00 0.00 0.00 0.01 0.00 0.01 0.01 0.01 0.01 0.01 0.01 0.01 0.01 0.01 0.01
0.01 0.01 0.01 0.01 0.01 0.01 0.00 0.00 0.00 0.00 0.00 0.00 0.00 0.00 0.01 0.01 0.00 0.00 0.00 0.00 0.00 0.00 0.00 0.00 0.00 0.00 0.00 0.00 0.00 0.00 0.00 0.00 0.01 0.01 0.00 0.00 0.00 0.01 0.01 0.01 0.01 0.01 0.01 0.01
0.01 0.01 0.01 0.01 0.01 0.00 0.00 0.00 0.00 0.00 0.00 0.00 0.00 0.00 0.00 0.00 0.00 0.00 0.00 0.00 0.00 0.00 0.00 0.00 0.00 0.00 0.00 0.00 0.00 0.00 0.00 0.00 0.00 0.00 0.00 0.00 0.01 0.01 0.01 0.01 0.01 0.01 0.01 0.02
0.01 0.01 0.01 0.01 0.01 0.00 0.00 0.00 0.00 0.00 0.00 0.00 0.00 0.00 0.00 0.00 0.00 0.00 0.00 0.00 0.00 0.00 0.00 0.00 0.00 0.00 0.00 0.00 0.00 0.00 0.00 0.00 0.00 0.00 0.00 0.00 0.01 0.01 0.01 0.01 0.01 0.01 0.01 0.01
0.01 0.01 0.01 0.00 0.00 0.00 0.00 0.00 0.00 0.00 0.00 0.00 0.00 0.00 0.00 0.01 0.01 0.01 0.01 0.01 0.01 0.01 0.01 0.00 0.00 0.00 0.00 0.00 0.00 0.00 0.01 0.00 0.00 0.00 0.00 0.00 0.01 0.01 0.01 0.01 0.01 0.01 0.01 0.01
0.01 0.00 0.00 0.00 0.00 0.00 0.00 0.00 0.00 0.00 0.00 0.00 0.00 0.00 0.01 0.01 0.01 0.01 0.01 0.01 0.01 0.01 0.01 0.01 0.01 0.00 0.00 0.00 0.01 0.01 0.01 0.01 0.00 0.00 0.00 0.00 0.00 0.01 0.01 0.01 0.01 0.01 0.01 0.01
0.00 0.00 0.00 0.00 0.00 0.00 0.00 0.00 0.00 0.00 0.00 0.01 0.01 0.01 0.01 0.01 0.02 0.01 0.01 0.01 0.01 0.01 0.01 0.01 0.01 0.00 0.01 0.01 0.01 0.01 0.01 0.00 0.00 0.00 0.00 0.00 0.00 0.01 0.01 0.01 0.01 0.01 0.01 0.01
0.00 0.00 0.00 0.00 0.00 0.00 0.00 0.00 0.01 0.01 0.01 0.01 0.01 0.01 0.01 0.01 0.02 0.02 0.01 0.01 0.01 0.01 0.01 0.01 0.01 0.01 0.02 0.02 0.01 0.01 0.00 0.00 0.01 0.01 0.01 0.01 0.01 0.01 0.01 0.01 0.01 0.01 0.01 0.01
0.00 0.00 0.00 0.00 0.00 0.00 0.00 0.01 0.01 0.01 0.01 0.01 0.01 0.01 0.01 0.01 0.01 0.01 0.01 0.01 0.01 0.01 0.01 0.01 0.01 0.01 0.02 0.01 0.01 0.01 0.01 0.01 0.01 0.01 0.01 0.01 0.01 0.01 0.01 0.01 0.01 0.01 0.01 0.01
0.00 0.00 0.00 0.00 0.00 0.00 0.00 0.01 0.01 0.01 0.01 0.01 0.01 0.01 0.01 0.01 0.01 0.01 0.01 0.01 0.01 0.01 0.01 0.01 0.01 0.01 0.02 0.01 0.01 0.01 0.01 0.01 0.01 0.01 0.01 0.01 0.01 0.01 0.01 0.01 0.01 0.01 0.01 0.01
0.00 0.00 0.00 0.00 0.00 0.01 0.01 0.01 0.01 0.01 0.01 0.01 0.01 0.01 0.01 0.01 0.01 0.01 0.01 0.01 0.01 0.01 0.00 0.00 0.00 0.01 0.00 0.00 0.00 0.00 0.00 0.01 0.01 0.01 0.01 0.01 0.01 0.01 0.01 0.01 0.01 0.01 0.01 0.01
0.00 0.00 0.00 0.00 0.00 0.01 0.01 0.01 0.01 0.01 0.01 0.01 0.01 0.01 0.01 0.01 0.01 0.01 0.01 0.01 0.00 0.00 0.00 0.00 0.00 0.00 0.00 0.00 0.00 0.00 0.00 0.00 0.00 0.00 0.01 0.01 0.01 0.01 0.01 0.01 0.01 0.01 0.01 0.01
0.00 0.00 0.00 0.00 0.00 0.01 0.01 0.01 0.01 0.01 0.01 0.01 0.01 0.01 0.01 0.01 0.00 0.00 0.00 0.00 0.00 0.00 0.00 0.00 0.00 0.00 0.00 0.00 0.00 0.00 0.00 0.00 0.00 0.00 0.01 0.01 0.01 0.01 0.01 0.01 0.01 0.01 0.01 0.01
MSLP
1018.77 1018.88 1018.89 1018.76 1018.45 1017.97 1017.34 1016.62 1015.89 1015.23 1014.72 1014.44 1014.44 1014.73 1015.30 1016.11 1017.08 1018.15 1019.25 1020.32 1021.33 1022.26 1023.13 1023.95 1024.76 1025.57 1026.42 1027.30 1028.19 1029.06 1029.88 1030.62 1031.25 1031.75 1032.13 1032.39 1032.57 1032.68 1032.75 1032.79 1032.80 1032.78 1032.72 1032.59
1018.75 1018.67 1018.48 1018.15 1017.66 1017.04 1016.33 1015.59 1014.90 1014.33 1013.96 1013.84 1014.02 1014.47 1015.16 1016.06 1017.08 1018.15 1019.22 1020.24 1021.17 1022.03 1022.83 1023.60 1024.38 1025.18 1026.03 1026.92 1027.83 1028.72 1029.57 1030.33 1030.97 1031.48 1031.85 1032.10 1032.25 1032.33 1032.35 1032.35 1032.31 1032.24 1032.14 1031.99
1018.66 1018.40 1018.02 1017.51 1016.88 1016.15 1015.40 1014.68 1014.06 1013.62 1013.42 1013.49 1013.85 1014.48 1015.31 1016.31 1017.38 1018.47 1019.52 1020.48 1021.36 1022.15 1022.88 1023.59 1024.31 1025.08 1025.90 1026.77 1027.67 1028.56 1029.40 1030.16 1030.79 1031.29 1031.65 1031.88 1032.00 1032.04 1032.02 1031.96 1031.86 1031.74 1031.59 1031.39
1018.37 1017.96 1017.44 1016.82 1016.11 1015.35 1014.62 1013.98 1013.49 1013.22 1013.21 1013.49 1014.04 1014.84 1015.81 1016.90 1018.03 1019.13 1020.16 1021.08 1021.89 1022.60 1023.26 1023.90 1024.56 1025.28 1026.05 1026.87 1027.73 1028.59 1029.40 1030.13 1030.74 1031.21 1031.55 1031.75 1031.84 1031.83 1031.77 1031.65 1031.50 1031.31 1031.09 1030.84
1017.82 1017.32 1016.73 1016.07 1015.37 1014.67 1014.04 1013.54 1013.24 1013.17 1013.38 1013.86 1014.61 1015.56 1016.65 1017.82 1018.98 1020.08 1021.08 1021.96 1022.70 1023.35 1023.94 1024.52 1025.11 1025.75 1026.46 1027.22 1028.02 1028.81 1029.57 1030.24 1030.81 1031.25 1031.54 1031.71 1031.76 1031.72 1031.61 1031.44 1031.22 1030.97 1030.68 1030.36
1017.00 1016.48 1015.90 1015.30 1014.69 1014.13 1013.68 1013.39 1013.31 1013.47 1013.90 1014.57 1015.48 1016.56 1017.74 1018.95 1020.13 1021.22 1022.18 1023.01 1023.70 1024.30 1024.83 1025.34 1025.87 1026.45 1027.08 1027.77 1028.49 1029.20 1029.88 1030.48 1030.99 1031.37 1031.62 1031.74 1031.75 1031.67 1031.51 1031.29 1031.02 1030.71 1030.35 1029.96
1015.98 1015.50 1015.02 1014.55 1014.12 1013.78 1013.56 1013.51 1013.67 1014.06 1014.69 1015.53 1016.56 1017.72 1018.95 1020.17 1021.34 1022.40 1023.33 1024.12 1024.77 1025.32 1025.81 1026.28 1026.77 1027.28 1027.85 1028.46 1029.09 1029.71 1030.29 1030.81 1031.23 1031.54 1031.72 1031.80 1031.76 1031.63 1031.43 1031.17 1030.85 1030.48 1030.07 1029.61
1014.88 1014.52 1014.19 1013.92 1013.72 1013.63 1013.67 1013.88 1014.27 1014.86 1015.65 1016.62 1017.72 1018.92 1020.15 1021.35 1022.49 1023.51 1024.40 1025.16 1025.79 1026.32 1026.80 1027.25 1027.71 1028.18 1028.68 1029.22 1029.76 1030.28 1030.75 1031.16 1031.48 1031.70 1031.81 1031.82 1031.73 1031.56 1031.32 1031.02 1030.66 1030.25 1029.80 1029.29
1013.90 1013.69 1013.56 1013.51 1013.56 1013.72 1014.01 1014.45 1015.04 1015.79 1016.69 1017.72 1018.85 1020.04 1021.24 1022.39 1023.48 1024.46 1025.32 1026.06 1026.69 1027.23 1027.72 1028.17 1028.61 1029.06 1029.52 1029.97 1030.42 1030.83 1031.20 1031.49 1031.70 1031.81 1031.84 1031.77 1031.62 1031.40 1031.12 1030.79 1030.41 1029.98 1029.50 1028.97
1013.19 1013.15 1013.22 1013.40 1013.68 1014.07 1014.57 1015.18 1015.92 1016.77 1017.73 1018.77 1019.88 1021.02 1022.16 1023.25 1024.28 1025.22 1026.06 1026.80 1027.45 1028.02 1028.53 1029.00 1029.44 1029.87 1030.28 1030.67 1031.02 1031.32 1031.57 1031.74 1031.83 1031.84 1031.77 1031.62 1031.41 1031.14 1030.83 1030.47 1030.08 1029.64 1029.16 1028.63
1012.88 1013.02 1013.27 1013.64 1014.11 1014.67 1015.32 1016.06 1016.88 1017.77 1018.73 1019.75 1020.80 1021.87 1022.93 1023.96 1024.93 1025.84 1026.67 1027.42 1028.08 1028.68 1029.22 1029.71 1030.16 1030.56 1030.93 1031.25 1031.51 1031.71 1031.84 1031.89 1031.86 1031.76 1031.60 1031.37 1031.10 1030.79 1030.45 1030.08 1029.68 1029.24 1028.77 1028.27
1013.05 1013.32 1013.72 1014.23 1014.82 1015.50 1016.24 1017.03 1017.88 1018.77 1019.69 1020.66 1021.64 1022.63 1023.62 1024.58 1025.51 1026.39 1027.21 1027.96 1028.65 1029.27 1029.83 1030.32 1030.76 1031.13 1031.44 1031.69 1031.86 1031.96 1031.97 1031.92 1031.79 1031.60 1031.35 1031.06 1030.74 1030.39 1030.02 1029.64 1029.24 1028.81 1028.36 1027.88
1013.65 1014.02 1014.51 1015.10 1015.76 1016.49 1017.26 1018.07 1018.90 1019.76 1020.64 1021.54 1022.45 1023.38 1024.30 1025.21 1026.10 1026.95 1027.75 1028.51 1029.19 1029.81 1030.36 1030.84 1031.25 1031.57 1031.82 1031.98 1032.07 1032.07 1032.00 1031.85 1031.64 1031.38 1031.07 1030.73 1030.37 1029.99 1029.61 1029.21 1028.81 1028.39 1027.96 1027.51
1014.59 1015.01 1015.54 1016.16 1016.84 1017.57 1018.34 1019.12 1019.93 1020.75 1021.58 1022.43 1023.30 1024.17 1025.04 1025.91 1026.76 1027.58 1028.36 1029.09 1029.75 1030.34 1030.85 1031.28 1031.63 1031.88 1032.05 1032.14 1032.14 1032.07 1031.92 1031.72 1031.45 1031.14 1030.80 1030.43 1030.05 1029.66 1029.25 1028.85 1028.44 1028.02 1027.59 1027.15
1015.74 1016.17 1016.70 1017.30 1017.97 1018.68 1019.41 1020.17 1020.95 1021.74 1022.55 1023.36 1024.19 1025.03 1025.87 1026.71 1027.52 1028.30 1029.04 1029.72 1030.32 1030.85 1031.29 1031.64 1031.90 1032.07 1032.16 1032.17 1032.10 1031.97 1031.78 1031.54 1031.25 1030.93 1030.57 1030.20 1029.81 1029.41 1029.00 1028.58 1028.15 1027.72 1027.28 1026.83
1016.99 1017.40 1017.89 1018.46 1019.08 1019.76 1020.46 1021.20 1021.96 1022.73 1023.52 1024.33 1025.15 1025.97 1026.78 1027.58 1028.35 1029.08 1029.75 1030.35 1030.87 1031.30 1031.64 1031.89 1032.06 1032.14 1032.15 1032.09 1031.97 1031.80 1031.59 1031.34 1031.06 1030.74 1030.40 1030.04 1029.65 1029.25 1028.83 1028.39 1027.94 1027.49 1027.02 1026.55
1018.27 1018.64 1019.08 1019.59 1020.16 1020.80 1021.48 1022.20 1022.95 1023.72 1024.52 1025.32 1026.14 1026.94 1027.73 1028.48 1029.20 1029.85 1030.43 1030.93 1031.35 1031.67 1031.90 1032.04 1032.11 1032.11 1032.04 1031.93 1031.78 1031.60 1031.39 1031.15 1030.88 1030.60 1030.28 1029.93 1029.56 1029.15 1028.72 1028.26 1027.79 1027.30 1026.79 1026.28
1019.56 1019.87 1020.25 1020.70 1021.23 1021.83 1022.49 1023.20 1023.95 1024.73 1025.52 1026.33 1027.13 1027.90 1028.65 1029.34 1029.98 1030.54 1031.02 1031.41 1031.70 1031.91 1032.03 1032.08 1032.06 1031.99 1031.87 1031.73 1031.56 1031.38 1031.18 1030.96 1030.73 1030.47 1030.18 1029.85 1029.48 1029.08 1028.63 1028.15 1027.64 1027.11 1026.57 1026.02
1020.88 1021.13 1021.45 1021.86 1022.35 1022.92 1023.55 1024.25 1024.99 1025.76 1026.54 1027.32 1028.09 1028.81 1029.49 1030.10 1030.64 1031.10 1031.46 1031.74 1031.92 1032.02 1032.05 1032.01 1031.93 1031.81 1031.67 1031.51 1031.34 1031.17 1030.99 1030.80 1030.59 1030.35 1030.07 1029.75 1029.38 1028.97 1028.51 1028.00 1027.46 1026.90 1026.32 1025.73
1022.27 1022.47 1022.74 1023.10 1023.55 1024.09 1024.70 1025.38 1026.09 1026.83 1027.57 1028.30 1029.00 1029.65 1030.23 1030.74 1031.16 1031.50 1031.75 1031.92 1032.00 1032.02 1031.97 1031.88 1031.76 1031.62 1031.47 1031.31 1031.16 1031.00 1030.83 1030.65 1030.45 1030.21 1029.93 1029.61 1029.23 1028.80 1028.31 1027.78 1027.22 1026.63 1026.02 1025.41
1023.75 1023.91 1024.15 1024.48 1024.89 1025.40 1025.97 1026.60 1027.27 1027.95 1028.62 1029.26 1029.86 1030.39 1030.85 1031.24 1031.54 1031.76 1031.91 1031.98 1031.98 1031.94 1031.85 1031.74 1031.60 1031.46 1031.32 1031.17 1031.02 1030.87 1030.70 1030.52 1030.31 1030.06 1029.76 1029.41 1029.01 1028.55 1028.05 1027.49 1026.91 1026.30 1025.67 1025.04
1025.31 1025.45 1025.67 1025.97 1026.36 1026.82 1027.35 1027.91 1028.50 1029.09 1029.66 1030.18 1030.65 1031.05 1031.38 1031.64 1031.81 1031.92 1031.97 1031.96 1031.92 1031.84 1031.73 1031.61 1031.48 1031.35 1031.22 1031.09 1030.94 1030.79 1030.61 1030.41 1030.17 1029.89 1029.56 1029.18 1028.74 1028.25 1027.72 1027.14 1026.54 1025.91 1025.27 1024.63
1026.90 1027.04 1027.25 1027.53 1027.88 1028.30 1028.76 1029.25 1029.75 1030.22 1030.66 1031.05 1031.38 1031.64 1031.83 1031.95 1032.02 1032.03 1032.00 1031.93 1031.85 1031.75 1031.64 1031.53 1031.42 1031.31 1031.19 1031.06 1030.92 1030.75 1030.55 1030.32 1030.04 1029.71 1029.34 1028.91 1028.43 1027.91 1027.35 1026.76 1026.14 1025.50 1024.85 1024.19
1028.45 1028.60 1028.81 1029.08 1029.40 1029.76 1030.16 1030.55 1030.94 1031.29 1031.60 1031.84 1032.03 1032.15 1032.21 1032.22 1032.18 1032.11 1032.02 1031.92 1031.81 1031.71 1031.61 1031.51 1031.42 1031.32 1031.21 1031.08 1030.92 1030.73 1030.50 1030.22 1029.90 1029.52 1029.10 1028.63 1028.11 1027.56 1026.97 1026.36 1025.72 1025.06 1024.39 1023.71
1029.90 1030.06 1030.27 1030.52 1030.81 1031.12 1031.43 1031.73 1032.00 1032.23 1032.41 1032.53 1032.59 1032.58 1032.54 1032.45 1032.33 1032.21 1032.07 1031.94 1031.83 1031.72 1031.62 1031.53 1031.44 1031.35 1031.23 1031.09 1030.91 1030.69 1030.42 1030.11 1029.74 1029.32 1028.85 1028.34 1027.79 1027.20 1026.59 1025.95 1025.29 1024.60 1023.90 1023.18
1031.18 1031.36 1031.57 1031.80 1032.04 1032.29 1032.52 1032.73 1032.89 1033.01 1033.08 1033.08 1033.04 1032.94 1032.81 1032.66 1032.49 1032.32 1032.16 1032.01 1031.88 1031.77 1031.67 1031.57 1031.48 1031.37 1031.23 1031.06 1030.85 1030.60 1030.29 1029.93 1029.52 1029.07 1028.56 1028.02 1027.44 1026.83 1026.19 1025.52 1024.82 1024.10 1023.35 1022.57
1032.31 1032.49 1032.68 1032.88 1033.07 1033.25 1033.40 1033.51 1033.59 1033.61 1033.58 1033.51 1033.38 1033.23 1033.04 1032.85 1032.65 1032.45 1032.28 1032.11 1031.97 1031.84 1031.72 1031.60 1031.48 1031.34 1031.17 1030.96 1030.72 1030.42 1030.08 1029.68 1029.24 1028.75 1028.22 1027.65 1027.04 1026.40 1025.72 1025.02 1024.28 1023.52 1022.71 1021.88
Thickness
5464 5460 5456 5457 5455 5447 5445 5456 5458 5469 5463 5459 5445 5435 5427 5418 5411 5404 5399 5394 5389 5385 5380 5375 5370 5367 5363 5360 5357 5354 5352 5350 5348 5345 5342 5340 5338 5336 5335 5334 5333 5333 5332 5332
5442 5441 5438 5440 5446 5443 5441 5443 5445 5446 5445 5440 5428 5419 5413 5406 5399 5394 5389 5384 5378 5373 5368 5364 5360 5357 5353 5349 5346 5343 5341 5339 5336 5333 5330 5328 5326 5325 5323 5322 5321 5320 5320 5320
5443 5425 5424 5439 5446 5437 5433 5433 5433 5435 5438 5421 5411 5406 5402 5395 5389 5384 5379 5373 5367 5362 5357 5353 5349 5345 5341 5338 5334 5331 5329 5327 5324 5321 5319 5317 5314 5313 5311 5310 5309 5308 5308 5308
5423 5416 5420 5451 5428 5427 5426 5422 5417 5416 5412 5407 5401 5392 5385 5381 5377 5372 5366 5360 5355 5350 5345 5341 5336 5332 5328 5324 5321 5318 5316 5314 5311 5309 5307 5305 5302 5301 5299 5298 5297 5297 5296 5296
5411 5419 5433 5428 5415 5408 5408 5410 5403 5399 5396 5388 5379 5375 5375 5367 5362 5358 5353 5348 5343 5338 5332 5328 5324 5319 5316 5312 5309 5306 5303 5301 5298 5296 5294 5293 5291 5290 5288 5287 5286 5285 5285 5286
5398 5407 5420 5427 5401 5392 5396 5402 5392 5385 5381 5373 5366 5375 5374 5355 5347 5343 5338 5334 5329 5324 5319 5315 5311 5307 5303 5300 5297 5294 5291 5288 5286 5284 5282 5281 5279 5278 5277 5276 5275 5275 5275 5275
5393 5398 5416 5399 5382 5381 5391 5399 5377 5372 5367 5360 5358 5358 5347 5337 5333 5329 5324 5320 5315 5310 5306 5303 5298 5294 5291 5288 5285 5281 5278 5276 5274 5272 5271 5270 5268 5267 5266 5265 5265 5265 5265 5266
5383 5385 5398 5376 5371 5379 5381 5366 5360 5356 5351 5345 5339 5332 5326 5322 5318 5314 5310 5306 5301 5297 5293 5289 5285 5282 5279 5276 5273 5269 5266 5264 5263 5261 5260 5259 5257 5257 5255 5255 5255 5256 5256 5257
5385 5388 5374 5363 5363 5358 5353 5350 5346 5341 5335 5329 5322 5317 5313 5308 5304 5300 5296 5292 5288 5284 5280 5276 5272 5269 5267 5264 5260 5258 5256 5254 5252 5251 5249 5248 5247 5247 5246 5246 5246 5247 5248 5249
5361 5363 5354 5348 5344 5340 5337 5334 5330 5325 5319 5314 5309 5304 5299 5295 5291 5287 5283 5279 5275 5271 5267 5264 5260 5257 5254 5251 5248 5246 5245 5244 5242 5241 5240 5239 5238 5237 5237 5237 5237 5237 5238 5240
5351 5347 5339 5337 5333 5329 5323 5318 5313 5309 5305 5300 5296 5291 5286 5282 5277 5273 5269 5265 5261 5258 5255 5252 5248 5245 5242 5239 5237 5236 5235 5233 5232 5231 5230 5229 5229 5228 5227 5227 5226 5227 5229 5230
5352 5343 5336 5331 5321 5316 5311 5306 5301 5296 5291 5286 5282 5278 5273 5269 5264 5260 5256 5253 5249 5246 5243 5239 5236 5233 5231 5228 5226 5225 5224 5223 5222 5221 5220 5220 5220 5220 5219 5218 5218 5218 5219 5220
5328 5322 5318 5312 5306 5301 5297 5293 5288 5284 5279 5273 5269 5264 5260 5256 5252 5248 5244 5241 5237 5234 5231 5228 5225 5223 5220 5218 5215 5214 5213 5213 5212 5211 5211 5210 5210 5210 5211 5211 5211 5211 5212 5213
5309 5306 5303 5300 5294 5288 5283 5278 5274 5269 5264 5260 5256 5252 5248 5244 5240 5236 5233 5229 5226 5222 5220 5217 5215 5213 5210 5208 5206 5204 5203 5203 5202 5202 5202 5201 5201 5201 5201 5202 5204 5205 5205 5205
5295 5294 5292 5286 5279 5274 5269 5265 5261 5257 5252 5247 5243 5239 5236 5232 5228 5224 5221 5218 5215 5212 5209 5207 5205 5203 5201 5199 5197 5196 5195 5194 5193 5193 5193 5193 5193 5193 5193 5193 5194 5196 5197 5198
5280 5278 5275 5271 5267 5262 5258 5254 5250 5246 5241 5236 5232 5227 5224 5220 5217 5213 5210 5207 5204 5203 5200 5197 5195 5193 5191 5190 5188 5187 5187 5186 5185 5185 5186 5185 5185 5185 5185 5186 5187 5188 5189 5189
5269 5267 5263 5259 5255 5251 5246 5242 5238 5234 5229 5224 5220 5216 5212 5209 5206 5203 5200 5197 5194 5192 5190 5188 5186 5184 5182 5181 5180 5180 5179 5179 5178 5178 5178 5178 5177 5178 5178 5178 5179 5179 5180 5180
5257 5255 5252 5248 5244 5239 5235 5231 5227 5222 5218 5214 5209 5205 5202 5200 5197 5194 5190 5187 5185 5183 5182 5179 5177 5176 5174 5173 5172 5172 5171 5171 5171 5171 5170 5170 5170 5170 5170 5170 5171 5171 5172 5172
5244 5242 5239 5235 5231 5227 5223 5219 5215 5211 5207 5203 5200 5196 5193 5189 5187 5184 5181 5178 5177 5176 5174 5171 5170 5169 5167 5166 5165 5164 5164 5164 5163 5163 5163 5163 5163 5162 5162 5162 5162 5163 5163 5163
5233 5231 5227 5224 5220 5216 5212 5209 5204 5201 5197 5193 5189 5186 5183 5180 5177 5174 5171 5170 5169 5167 5164 5163 5162 5162 5160 5159 5158 5158 5157 5156 5156 5156 5156 5155 5155 5155 5155 5155 5155 5155 5155 5156
5222 5219 5216 5213 5208 5205 5201 5198 5195 5191 5188 5184 5181 5177 5174 5171 5168 5165 5164 5164 5161 5158 5157 5156 5155 5155 5154 5153 5152 5151 5150 5149 5149 5148 5148 5148 5148 5147 5147 5147 5147 5147 5148 5148
5212 5209 5206 5202 5198 5195 5191 5188 5185 5182 5179 5176 5172 5169 5166 5163 5161 5158 5156 5154 5153 5151 5150 5149 5148 5148 5148 5147 5146 5144 5143 5142 5142 5141 5141 5140 5140 5140 5140 5139 5140 5140 5140 5141
5203 5199 5196 5192 5189 5185 5181 5179 5176 5173 5170 5167 5164 5161 5159 5156 5154 5152 5150 5147 5145 5144 5143 5142 5141 5142 5142 5140 5139 5137 5136 5135 5135 5134 5134 5133 5133 5132 5132 5132 5133 5133 5134 5135
5193 5190 5186 5182 5178 5176 5173 5171 5167 5164 5161 5158 5156 5153 5150 5148 5147 5144 5142 5140 5138 5138 5137 5135 5135 5135 5134 5132 5131 5130 5129 5129 5128 5128 5127 5127 5126 5126 5126 5126 5127 5128 5129 5130
5184 5180 5176 5173 5171 5169 5166 5162 5159 5156 5154 5151 5148 5146 5143 5141 5139 5137 5134 5133 5131 5131 5129 5128 5128 5127 5126 5125 5124 5123 5122 5122 5121 5121 5121 5120 5120 5120 5120 5121 5121 5123 5124 5126
5176 5173 5170 5167 5164 5161 5158 5155 5152 5150 5147 5144 5142 5139 5136 5133 5131 5129 5127 5126 5124 5123 5122 5120 5119 5119 5118 5118 5117 5117 5116 5116 5115 5114 5114 5114 5114 5115 5115 5116 5117 5118 5120 5122
5167 5165 5161 5159 5156 5153 5150 5147 5145 5142 5140 5137 5135 5132 5129 5126 5124 5123 5121 5119 5118 5116 5115 5114 5113 5112 5112 5111 5111 5110 5110 5110 5109 5109 5109 5109 5109 5110 5111 5111 5113 5114 5116 5118